Hourly Data Report for April 02, 2006

TORONTO CITY
ONTARIO

43°40'00.000" N
79°24'00.000" W
112.50 m
6158355
71508
XTO

Download Data

Hourly Data (April 2006)
Hourly Data Report for April 2, 2006
TIME
LST
Temp Definition
°C
Dew Point Definition
°C
Rel Hum Definition
%
Precip. Amount Definition
mm

Wind Dir Definition
10's deg

Wind Spd Definition
km/h
Visibility Definition
km
Stn Press Definition
kPa
Hmdx Definition


Wind Chill Definition


Weather Definition


00:00 5.0 0.5 73   LegendMM LegendMM   100.55     LegendNANA
01:00 4.2 0.0 74   LegendMM LegendMM   100.60     LegendNANA
02:00 4.0 0.1 76   LegendMM LegendMM   100.62     LegendNANA
03:00 3.4 0.2 80   LegendMM LegendMM   100.62     LegendNANA
04:00 2.7 0.1 83   LegendMM LegendMM   100.64     LegendNANA
05:00 2.4 -0.2 83   LegendMM LegendMM   100.67     LegendNANA
06:00 2.7 -1.8 72   LegendMM LegendMM   100.79     LegendNANA
07:00 2.5 -2.3 71   LegendMM LegendMM   100.75     LegendNANA
08:00 4.0 -2.7 62   LegendMM LegendMM   100.83     LegendNANA
09:00 5.8 -3.7 50   LegendMM LegendMM   100.84     LegendNANA
10:00 6.5 -7.2 37   LegendMM LegendMM   100.82     LegendNANA
11:00 7.8 -4.7 41   LegendMM LegendMM   100.77     LegendNANA
12:00 7.9 -2.8 47   LegendMM LegendMM   100.74     LegendNANA
13:00 7.7 -3.3 46   LegendMM LegendMM   100.62     LegendNANA
14:00 6.8 -2.9 50   LegendMM LegendMM   100.55     LegendNANA
15:00 7.1 -2.4 51   LegendMM LegendMM   100.50     LegendNANA
16:00 8.2 -2.1 48   LegendMM LegendMM   100.39     LegendNANA
17:00 7.7 -9.9 27   LegendMM LegendMM   100.33     LegendNANA
18:00 6.8 -12.2 24   LegendMM LegendMM   100.27     LegendNANA
19:00 5.4 -9.0 35   LegendMM LegendMM   100.27     LegendNANA
20:00 5.8 -9.1 33   LegendMM LegendMM   100.15     LegendNANA
21:00 5.0 -3.8 53   LegendMM LegendMM   100.06     LegendNANA
22:00 5.1 -2.5 58   LegendMM LegendMM   100.00     LegendNANA
23:00 5.6 -2.3 57   LegendMM LegendMM   99.91     LegendNANA

Notes on Data Quality.

Legend

  • E = Estimated
  • M = Missing
  • NA = Not Available*
  • [empty] = Indicates an unobserved value
Date modified: